Location: Campestrin
(46.4667°N, 11.7167°E)
Time: 03:40:09
(UTC+00:00)

Cosmos 2322 - Pass Details

Date: 18 April 2021
Orbit: 843 x 852 km, 71.0° (Epoch: 16 May)

Event Time Altitude Azimuth Distance (km) Brightness Sun altitude
Rises 18:24:51 0° 335° (NNW) 3,412 7.6 -4.0°
Reaches altitude 10° 18:27:22 10° 340° (NNW) 2,473 6.8 -4.5°
Maximum altitude 18:32:56 55° 59° (ENE) 1,009 4.0 -5.3°
Drops below altitude 10° 18:38:28 10° 136° (SE) 2,457 5.5 -6.2°
Enters shadow 18:39:48 - 139° (SE) 2,954 6.0 -6.4°
